EN

Hourly Weather Lukin Ostrov

Today, 25 November, Wednesday

Time Temperature Precipitation Wind Pressure Humidity
00:00 -2°C° 0 mm 5 mps 753 mmHg 94%
01:00 -2°C° 0 mm 5 mps 754 mmHg 94%
02:00 -4°C° 0 mm 5 mps 754 mmHg 94%
03:00 -4°C° 0 mm 5 mps 755 mmHg 94%
04:00 -4°C° 0 mm 5 mps 755 mmHg 93%
05:00 -3°C° 0 mm 4 mps 755 mmHg 92%
06:00 -3°C° 0 mm 4 mps 756 mmHg 92%
07:00 -3°C° 0 mm 4 mps 756 mmHg 92%
08:00 -3°C° 0 mm 4 mps 757 mmHg 92%
09:00 -4°C° 0 mm 3 mps 757 mmHg 92%
10:00 -4°C° 0 mm 3 mps 758 mmHg 93%
11:00 -4°C° 0 mm 3 mps 758 mmHg 94%
12:00 -4°C° 0 mm 3 mps 758 mmHg 94%
13:00 -4°C° 0 mm 2 mps 758 mmHg 94%
14:00 -4°C° 0 mm 2 mps 759 mmHg 94%
15:00 -5°C° 0 mm 2 mps 759 mmHg 95%
16:00 -5°C° 0 mm 2 mps 759 mmHg 95%
17:00 -3°C° 0 mm 1 mps 759 mmHg 95%
18:00 -5°C° 0 mm 2 mps 759 mmHg 95%
19:00 -5°C° 0 mm 2 mps 759 mmHg 95%
20:00 -5°C° 0 mm 2 mps 759 mmHg 95%
21:00 -6°C° 0 mm 3 mps 759 mmHg 94%
22:00 -5°C° 0 mm 4 mps 758 mmHg 93%
23:00 -5°C° 0 mm 4 mps 758 mmHg 92%

Tomorrow, 26 November, Thursday

Time Temperature Precipitation Wind Pressure Humidity
00:00 -6°C° 0 mm 5 mps 757 mmHg 91%
01:00 -6°C° 0 mm 6 mps 757 mmHg 91%
02:00 -6°C° 0 mm 7 mps 757 mmHg 90%
03:00 -4°C° 0 mm 7 mps 756 mmHg 88%
04:00 -5°C° 0 mm 8 mps 754 mmHg 85%
05:00 -4°C° 0 mm 9 mps 753 mmHg 83%
06:00 -4°C° 0.3 mm 10 mps 753 mmHg 87%
07:00 -4°C° 0.3 mm 10 mps 752 mmHg 91%
08:00 -4°C° 0.3 mm 11 mps 752 mmHg 95%
09:00 -4°C° 1.5 mm 11 mps 751 mmHg 95%
10:00 -4°C° 1.5 mm 11 mps 751 mmHg 96%
11:00 -4°C° 1.5 mm 11 mps 750 mmHg 96%
12:00 -4°C° 1.1 mm 11 mps 750 mmHg 97%
13:00 -4°C° 1.1 mm 10 mps 750 mmHg 97%
14:00 -4°C° 1.1 mm 10 mps 750 mmHg 97%
15:00 -4°C° 0.5 mm 9 mps 750 mmHg 97%
16:00 -4°C° 0.5 mm 9 mps 750 mmHg 97%
17:00 -2°C° 0.5 mm 8 mps 750 mmHg 97%
18:00 -2°C° 0.2 mm 8 mps 751 mmHg 97%
19:00 -2°C° 0.2 mm 7 mps 751 mmHg 97%
20:00 -2°C° 0.2 mm 7 mps 751 mmHg 98%
21:00 -2°C° 0.1 mm 7 mps 752 mmHg 97%
22:00 -2°C° 0.1 mm 6 mps 752 mmHg 97%
23:00 -2°C° 0.1 mm 6 mps 753 mmHg 97%

Day after tomorrow, 27 November, Friday

Time Temperature Precipitation Wind Pressure Humidity
00:00 -2°C° 0.1 mm 6 mps 754 mmHg 97%
01:00 -2°C° 0.1 mm 5 mps 754 mmHg 96%
02:00 -2°C° 0.1 mm 5 mps 755 mmHg 95%
03:00 -2°C° 0 mm 5 mps 755 mmHg 94%
04:00 -2°C° 0 mm 5 mps 756 mmHg 93%
05:00 -3°C° 0 mm 6 mps 757 mmHg 91%
06:00 -3°C° 0 mm 6 mps 757 mmHg 91%
07:00 -3°C° 0 mm 6 mps 758 mmHg 91%
08:00 -3°C° 0 mm 6 mps 759 mmHg 91%
09:00 -3°C° 0.1 mm 6 mps 759 mmHg 92%
10:00 -2°C° 0.1 mm 5 mps 760 mmHg 93%
11:00 -2°C° 0.1 mm 5 mps 761 mmHg 94%
12:00 -2°C° 0.1 mm 5 mps 761 mmHg 93%
13:00 -2°C° 0.1 mm 5 mps 762 mmHg 92%
14:00 -2°C° 0.1 mm 5 mps 762 mmHg 91%
15:00 -4°C° 0.1 mm 5 mps 763 mmHg 92%
16:00 -3°C° 0.1 mm 4 mps 763 mmHg 92%
17:00 -3°C° 0.1 mm 4 mps 764 mmHg 93%
18:00 -3°C° 0.1 mm 4 mps 765 mmHg 93%
19:00 -3°C° 0.1 mm 4 mps 765 mmHg 93%
20:00 -3°C° 0.1 mm 4 mps 766 mmHg 93%
21:00 -3°C° 0 mm 4 mps 766 mmHg 93%
22:00 -3°C° 0 mm 4 mps 766 mmHg 92%
23:00 -2°C° 0 mm 3 mps 767 mmHg 92%

28 November, Saturday

Time Temperature Precipitation Wind Pressure Humidity
00:00 -2°C° 0 mm 3 mps 767 mmHg 92%
01:00 -2°C° 0 mm 3 mps 768 mmHg 92%
02:00 -2°C° 0 mm 3 mps 768 mmHg 92%
03:00 -2°C° 0 mm 3 mps 768 mmHg 92%
04:00 -2°C° 0 mm 3 mps 769 mmHg 92%
05:00 -4°C° 0 mm 3 mps 769 mmHg 92%
06:00 -4°C° 0 mm 3 mps 769 mmHg 92%
07:00 -4°C° 0 mm 3 mps 770 mmHg 92%
08:00 -4°C° 0 mm 3 mps 770 mmHg 92%
09:00 -4°C° 0 mm 3 mps 771 mmHg 91%
10:00 -3°C° 0 mm 2 mps 771 mmHg 91%
11:00 -3°C° 0 mm 2 mps 771 mmHg 91%
12:00 -3°C° 0 mm 2 mps 771 mmHg 91%
13:00 -4°C° 0 mm 3 mps 772 mmHg 91%
14:00 -5°C° 0 mm 3 mps 772 mmHg 91%
15:00 -5°C° 0 mm 3 mps 772 mmHg 91%
16:00 -5°C° 0 mm 3 mps 773 mmHg 91%
17:00 -5°C° 0 mm 3 mps 773 mmHg 91%
18:00 -5°C° 0 mm 2 mps 773 mmHg 92%
19:00 -6°C° 0 mm 2 mps 773 mmHg 93%
20:00 -7°C° 0 mm 2 mps 774 mmHg 93%
21:00 -7°C° 0 mm 2 mps 774 mmHg 93%
22:00 -7°C° 0 mm 2 mps 774 mmHg 93%
23:00 -7°C° 0 mm 2 mps 774 mmHg 93%

29 November, Sunday

Time Temperature Precipitation Wind Pressure Humidity
00:00 -7°C° 0 mm 2 mps 774 mmHg 94%
01:00 -8°C° 0 mm 3 mps 774 mmHg 94%
02:00 -8°C° 0 mm 3 mps 774 mmHg 95%
03:00 -8°C° 0 mm 3 mps 774 mmHg 95%
04:00 -8°C° 0 mm 3 mps 774 mmHg 95%
05:00 -9°C° 0 mm 4 mps 774 mmHg 95%
06:00 -9°C° 0 mm 4 mps 774 mmHg 95%
07:00 -9°C° 0 mm 4 mps 774 mmHg 94%
08:00 -9°C° 0 mm 4 mps 773 mmHg 94%
09:00 -9°C° 0 mm 4 mps 773 mmHg 94%
10:00 -9°C° 0 mm 4 mps 773 mmHg 94%
11:00 -9°C° 0 mm 4 mps 773 mmHg 93%
12:00 -9°C° 0 mm 4 mps 773 mmHg 94%
13:00 -9°C° 0 mm 4 mps 773 mmHg 94%
14:00 -9°C° 0 mm 4 mps 772 mmHg 94%
15:00 -9°C° 0 mm 4 mps 772 mmHg 94%
16:00 -9°C° 0 mm 4 mps 772 mmHg 94%
17:00 -9°C° 0 mm 4 mps 772 mmHg 95%
18:00 -10°C° 0 mm 4 mps 772 mmHg 95%
19:00 -10°C° 0 mm 4 mps 772 mmHg 95%
20:00 -10°C° 0 mm 4 mps 772 mmHg 95%
21:00 -11°C° 0 mm 4 mps 772 mmHg 96%
22:00 -11°C° 0 mm 4 mps 772 mmHg 96%
23:00 -11°C° 0 mm 4 mps 772 mmHg 96%

30 November, Monday

Time Temperature Precipitation Wind Pressure Humidity
00:00 -11°C° 0 mm 4 mps 772 mmHg 96%
01:00 -11°C° 0 mm 4 mps 772 mmHg 96%
02:00 -11°C° 0 mm 4 mps 771 mmHg 96%
03:00 -10°C° 0 mm 4 mps 771 mmHg 95%
04:00 -9°C° 0 mm 4 mps 771 mmHg 94%
05:00 -8°C° 0 mm 4 mps 771 mmHg 93%
06:00 -8°C° 0 mm 5 mps 771 mmHg 92%
07:00 -7°C° 0 mm 5 mps 770 mmHg 90%
08:00 -7°C° 0 mm 5 mps 770 mmHg 89%
09:00 -7°C° 0 mm 5 mps 770 mmHg 90%
10:00 -8°C° 0 mm 6 mps 770 mmHg 90%
11:00 -8°C° 0 mm 6 mps 770 mmHg 91%
12:00 -9°C° 0 mm 6 mps 769 mmHg 91%
13:00 -9°C° 0 mm 6 mps 769 mmHg 92%
14:00 -9°C° 0 mm 6 mps 769 mmHg 92%
15:00 -9°C° 0 mm 6 mps 769 mmHg 92%
16:00 -9°C° 0 mm 6 mps 768 mmHg 92%
17:00 -9°C° 0 mm 6 mps 768 mmHg 92%
18:00 -9°C° 0 mm 6 mps 768 mmHg 92%
19:00 -10°C° 0 mm 6 mps 767 mmHg 93%
20:00 -10°C° 0 mm 6 mps 767 mmHg 94%
21:00 -10°C° 0 mm 6 mps 767 mmHg 94%
22:00 -10°C° 0 mm 6 mps 766 mmHg 94%
23:00 -10°C° 0 mm 6 mps 766 mmHg 93%
Show more